Content
SEND FEEDBACK

Daily
Averages
Monthly
Summary
United Kingdom

LONDON, ENGLAND


Home > Europe > United Kingdom > England
Elevation: 203 feet     Latitude: 51 09N     Longitude: 000 11W

WEATHER
 
SELECT A DAY
Number of Records: 294,488;   Date Range: 7/1/96 - 9/16/14
 
SHARE

PRINT THIS DATA

[ ← Previous Day ]
WEATHER ALMANAC - JUNE 19, 2013
[ Next Day → ]
[ °C ]   °F
Weather ElementAverageHighLow
Temperature67.7 °F78.8 °F (3:20 pm)57.2 °F (2:20 am)
Dewpoint60 °F62.6 °F (9:20 am)55.4 °F (2:20 am)
Humidity78.1 %100 % (3:20 am)54 % (3:20 pm)
Barometer29.96 in30.01 in (12:50 am)29.92 in (3:50 pm)
Wind Speed5.2 mph9.2 mph (4:50 pm)
Weather ElementAverage
Visibility5.3 mi
Wind DirectionESE (98.9 °)

Weather ElementTotal
Precipitation---
Cooling Degree Days3 (Base 65)
Growing Degree Days18 (Base 50)
Averaged from 47 records on June 19, 2013
WEATHER CONDITIONS BREAKOUT
WIND DIRECTION BREAKOUT
WEATHER BY HOUR - JUNE 19, 2013
[ °C ]   °F
Local TimeTemperatureDewpointHumidityBarometerVisibilityWind DirectionWind SpeedGust SpeedPrecipitationEventsConditions
12:50 AM59.0 °F57.2 °F94 %30.01 inVariable2.3 mphClear
1:20 AM59.0 °F57.2 °F94 %29.98 inWest (260°)2.3 mphClear
1:50 AM59.0 °F57.2 °F94 %29.98 in5.0 miVariable2.3 mph
2:20 AM57.2 °F55.4 °F94 %29.98 in5.0 miWest (260°)3.5 mph
2:50 AM59.0 °F57.2 °F94 %29.98 in4.3 miCalm
3:20 AM57.2 °F57.2 °F100 %29.98 in3.1 miWest (270°)3.5 mphHaze
3:50 AM59.0 °F57.2 °F94 %29.95 in4.3 miCalm
4:20 AM59.0 °F57.2 °F94 %29.95 in3.7 miVariable2.3 mph
4:50 AM59.0 °F57.2 °F94 %29.95 in4.3 miVariable2.3 mph
5:20 AM59.0 °F57.2 °F94 %29.95 in4.3 miVariable2.3 mphRainLight Rain
5:50 AM59.0 °F57.2 °F94 %29.95 in4.3 miSouth (180°)2.3 mphPartly Cloudy
6:20 AM59.0 °F57.2 °F94 %29.98 in3.7 miWest (260°)5.8 mphRainLight Rain
6:50 AM60.8 °F59.0 °F94 %29.95 in4.3 miNNW (340°)6.9 mph
7:20 AM60.8 °F59.0 °F94 %29.95 in4.3 miVariable3.5 mph
7:50 AM60.8 °F59.0 °F94 %29.98 in4.3 miVariable2.3 mphPartly Cloudy
8:20 AM62.6 °F59.0 °F88 %29.98 in3.7 miNW (310°)5.8 mphPartly Cloudy
8:50 AM64.4 °F60.8 °F88 %29.98 in4.3 miNorth (10°)4.6 mph
9:20 AM66.2 °F62.6 °F88 %29.98 in4.3 miENE (60°)5.8 mphPartly Cloudy
9:50 AM66.2 °F60.8 °F83 %29.98 in5.6 miVariable2.3 mphPartly Cloudy
10:20 AM68.0 °F62.6 °F83 %29.98 in5.6 miENE (70°)5.8 mphPartly Cloudy
10:50 AM69.8 °F62.6 °F78 %29.98 in5.6 miENE (70°)8.1 mphPartly Cloudy
11:20 AM71.6 °F60.8 °F69 %29.98 in6.2 miENE (70°)8.1 mphPartly Cloudy
11:50 AM71.6 °F62.6 °F73 %29.95 inNE (40°)5.8 mphClear
12:20 PM73.4 °F59.0 °F61 %29.95 in6.2 miNE (40°)5.8 mphPartly Cloudy
12:50 PM73.4 °F60.8 °F65 %29.95 inESE (110°)4.6 mphClear
1:20 PM75.2 °F59.0 °F57 %29.95 inNE (50°)4.6 mphClear
1:50 PM77.0 °F62.6 °F61 %29.95 inNorth (350°)4.6 mphClear
2:20 PM77.0 °F62.6 °F61 %29.95 in6.2 miWest (280°)4.6 mphPartly Cloudy
2:50 PM77.0 °F60.8 °F57 %29.95 in6.2 miWest (270°)5.8 mphPartly Cloudy
3:20 PM78.8 °F60.8 °F54 %29.95 in6.2 miVariable5.8 mphPartly Cloudy
3:50 PM77.0 °F60.8 °F57 %29.92 inNNW (330°)6.9 mphClear
4:20 PM77.0 °F60.8 °F57 %29.92 in6.2 miNE (50°)6.9 mphPartly Cloudy
4:50 PM77.0 °F60.8 °F57 %29.92 in6.2 miNNE (20°)9.2 mphPartly Cloudy
5:20 PM75.2 °F60.8 °F61 %29.92 in6.2 miENE (60°)9.2 mphPartly Cloudy
5:50 PM77.0 °F60.8 °F57 %29.95 inNE (50°)6.9 mphClear
6:20 PM77.0 °F60.8 °F57 %29.95 in6.2 miNE (50°)6.9 mphPartly Cloudy
6:50 PM75.2 °F60.8 °F61 %29.95 in6.2 miNE (40°)9.2 mphMostly Cloudy
7:20 PM73.4 °F62.6 °F69 %29.95 in6.2 miVariable4.6 mphScattered Clouds
7:50 PM71.6 °F62.6 °F73 %29.98 in6.2 miSouth (180°)6.9 mphScattered Clouds
8:20 PM71.6 °F62.6 °F73 %29.98 in6.2 miSouth (180°)4.6 mphMostly Cloudy
8:50 PM69.8 °F62.6 °F78 %29.98 in6.2 miVariable2.3 mphMostly Cloudy
9:20 PM68.0 °F62.6 °F83 %29.98 in6.2 miEast (80°)3.5 mphMostly Cloudy
9:50 PM68.0 °F62.6 °F83 %29.95 in6.2 miENE (60°)6.9 mphPartly Cloudy
10:20 PM68.0 °F60.8 °F78 %29.95 in6.2 miENE (70°)9.2 mphScattered Clouds
10:50 PM66.2 °F60.8 °F83 %29.98 inENE (70°)9.2 mphClear
11:20 PM64.4 °F57.2 °F77 %29.98 inENE (60°)9.2 mphClear
11:50 PM64.4 °F59.0 °F83 %29.95 inNE (50°)8.1 mphClear
Hourly data recorded from EGKK, located miles away from London, England







STORIES FROM OUR PARTNERS